Location: Tierz
(42.1336°N, 0.3549°W)
Time: 12:10:44
(UTC+00:00)

Okean O Rocket - Pass Details

Date: 29 October 2020
Orbit: 623 x 644 km, 98.2° (Epoch: 29 November)

Event Time Altitude Azimuth Distance (km) Brightness Sun altitude
Rises 17:20:37 0° 163° (SSE) 2,907 5.0 -4.8°
Reaches altitude 10° 17:22:48 10° 162° (SSE) 2,001 4.1 -5.1°
Maximum altitude 17:27:09 81° 76° (ENE) 640 1.6 -5.9°
Drops below altitude 10° 17:31:31 10° 349° (N) 2,006 4.2 -6.7°
Sets 17:33:43 0° 348° (NNW) 2,916 5.0 -7.1°
